Precipitable_Water
0.55 0.55 0.54 0.52 0.51 0.51 0.51 0.50 0.50 0.50 0.50 0.49 0.49 0.49 0.51 0.52 0.53 0.51 0.51 0.51 0.51 0.50 0.48 0.47 0.46 0.44 0.43 0.43 0.42 0.42 0.41 0.34 0.26 0.26 0.24 0.26 0.22 0.21 0.19 0.18 0.21 0.24 0.27 0.27 0.22 0.18 0.16 0.19 0.20 0.26 0.23 0.20 0.21 0.20 0.24 0.21 0.21 0.17 0.13 0.12 0.11 0.12 0.10 0.15 0.13 0.13 0.17 0.14 0.14 0.15 0.17 0.17 0.17 0.20 0.24 0.28 0.27 0.27 0.25 0.28 0.30 0.31 0.31 0.34 0.34 0.39 0.40 0.43
0.54 0.53 0.52 0.51 0.50 0.49 0.49 0.50 0.49 0.49 0.49 0.49 0.50 0.50 0.50 0.51 0.51 0.50 0.51 0.50 0.50 0.48 0.47 0.46 0.43 0.42 0.42 0.41 0.42 0.43 0.39 0.33 0.28 0.26 0.22 0.23 0.24 0.23 0.24 0.25 0.25 0.27 0.27 0.21 0.19 0.16 0.17 0.18 0.21 0.22 0.21 0.18 0.22 0.20 0.21 0.20 0.20 0.14 0.14 0.14 0.13 0.13 0.16 0.18 0.17 0.17 0.15 0.15 0.16 0.17 0.18 0.18 0.18 0.21 0.23 0.23 0.22 0.23 0.23 0.26 0.28 0.28 0.30 0.32 0.33 0.37 0.39 0.40
0.54 0.53 0.51 0.50 0.49 0.49 0.48 0.49 0.50 0.49 0.48 0.48 0.49 0.50 0.49 0.49 0.49 0.49 0.49 0.48 0.47 0.45 0.44 0.42 0.41 0.40 0.40 0.41 0.43 0.45 0.38 0.32 0.25 0.19 0.22 0.28 0.27 0.27 0.27 0.28 0.27 0.28 0.27 0.22 0.19 0.20 0.21 0.21 0.22 0.20 0.19 0.20 0.17 0.19 0.17 0.21 0.17 0.17 0.16 0.12 0.14 0.17 0.16 0.17 0.16 0.17 0.18 0.18 0.17 0.17 0.18 0.19 0.20 0.21 0.22 0.21 0.21 0.22 0.21 0.23 0.24 0.25 0.26 0.29 0.31 0.35 0.37 0.39
0.55 0.53 0.51 0.49 0.48 0.49 0.49 0.49 0.48 0.48 0.48 0.48 0.47 0.48 0.49 0.49 0.49 0.48 0.48 0.46 0.44 0.43 0.42 0.40 0.39 0.40 0.41 0.40 0.46 0.47 0.41 0.26 0.19 0.21 0.25 0.27 0.30 0.30 0.29 0.29 0.30 0.29 0.28 0.26 0.24 0.23 0.23 0.23 0.22 0.21 0.18 0.19 0.17 0.21 0.15 0.21 0.15 0.18 0.14 0.15 0.16 0.16 0.14 0.16 0.19 0.19 0.20 0.20 0.19 0.19 0.19 0.19 0.19 0.21 0.21 0.21 0.20 0.20 0.21 0.24 0.25 0.25 0.27 0.29 0.31 0.34 0.35 0.36
0.57 0.53 0.51 0.48 0.49 0.48 0.49 0.48 0.47 0.47 0.48 0.48 0.48 0.48 0.48 0.48 0.48 0.47 0.45 0.44 0.43 0.41 0.41 0.39 0.40 0.40 0.40 0.43 0.46 0.47 0.32 0.18 0.18 0.24 0.28 0.27 0.30 0.32 0.30 0.31 0.31 0.31 0.29 0.28 0.27 0.26 0.24 0.23 0.21 0.20 0.18 0.18 0.17 0.16 0.17 0.20 0.20 0.18 0.15 0.18 0.18 0.16 0.15 0.18 0.18 0.20 0.20 0.21 0.20 0.20 0.19 0.19 0.22 0.21 0.21 0.21 0.19 0.20 0.21 0.24 0.24 0.25 0.30 0.29 0.30 0.33 0.34 0.33
0.59 0.55 0.52 0.48 0.48 0.48 0.47 0.47 0.47 0.47 0.47 0.47 0.47 0.47 0.46 0.46 0.45 0.45 0.44 0.43 0.42 0.41 0.40 0.39 0.41 0.39 0.40 0.45 0.47 0.43 0.27 0.13 0.21 0.24 0.32 0.30 0.31 0.32 0.33 0.35 0.34 0.33 0.31 0.27 0.26 0.24 0.22 0.20 0.20 0.17 0.17 0.18 0.15 0.14 0.18 0.18 0.19 0.16 0.17 0.17 0.18 0.18 0.17 0.18 0.19 0.19 0.20 0.20 0.20 0.20 0.21 0.22 0.21 0.21 0.22 0.21 0.20 0.20 0.21 0.23 0.25 0.27 0.31 0.33 0.33 0.33 0.32 0.31
0.60 0.57 0.53 0.50 0.48 0.47 0.47 0.46 0.47 0.48 0.47 0.46 0.45 0.45 0.46 0.45 0.45 0.45 0.45 0.44 0.44 0.43 0.41 0.41 0.42 0.41 0.41 0.47 0.45 0.39 0.28 0.20 0.26 0.33 0.32 0.35 0.33 0.35 0.40 0.41 0.38 0.34 0.32 0.27 0.24 0.21 0.20 0.18 0.18 0.18 0.17 0.17 0.17 0.17 0.18 0.17 0.18 0.18 0.17 0.18 0.18 0.19 0.18 0.19 0.19 0.20 0.20 0.19 0.19 0.20 0.22 0.20 0.20 0.19 0.22 0.21 0.21 0.23 0.24 0.24 0.26 0.29 0.32 0.32 0.30 0.30 0.29 0.30
0.59 0.58 0.55 0.50 0.48 0.47 0.47 0.47 0.46 0.46 0.46 0.46 0.45 0.44 0.44 0.44 0.45 0.45 0.45 0.44 0.43 0.42 0.42 0.43 0.44 0.43 0.45 0.43 0.34 0.30 0.24 0.22 0.34 0.37 0.38 0.38 0.37 0.39 0.42 0.40 0.36 0.33 0.29 0.25 0.23 0.20 0.20 0.18 0.17 0.18 0.17 0.16 0.17 0.15 0.18 0.17 0.17 0.15 0.16 0.18 0.19 0.19 0.19 0.19 0.19 0.19 0.19 0.19 0.20 0.20 0.19 0.19 0.20 0.19 0.20 0.19 0.20 0.23 0.23 0.23 0.25 0.26 0.27 0.28 0.28 0.28 0.30 0.31
0.59 0.58 0.56 0.55 0.51 0.48 0.46 0.46 0.46 0.46 0.46 0.47 0.46 0.44 0.43 0.43 0.43 0.43 0.43 0.43 0.43 0.43 0.44 0.46 0.44 0.46 0.49 0.41 0.33 0.24 0.26 0.32 0.32 0.33 0.36 0.33 0.36 0.38 0.35 0.33 0.33 0.30 0.27 0.25 0.24 0.22 0.21 0.19 0.18 0.18 0.16 0.16 0.18 0.17 0.18 0.17 0.15 0.17 0.19 0.19 0.19 0.19 0.20 0.20 0.19 0.18 0.18 0.18 0.18 0.17 0.16 0.17 0.18 0.19 0.17 0.18 0.19 0.22 0.23 0.22 0.23 0.24 0.24 0.25 0.26 0.28 0.30 0.31
0.59 0.58 0.57 0.55 0.53 0.49 0.47 0.45 0.46 0.46 0.47 0.48 0.48 0.45 0.43 0.43 0.43 0.43 0.42 0.43 0.44 0.44 0.45 0.47 0.46 0.48 0.41 0.37 0.29 0.22 0.28 0.31 0.28 0.30 0.32 0.30 0.31 0.32 0.30 0.31 0.31 0.27 0.25 0.24 0.24 0.23 0.21 0.20 0.20 0.20 0.19 0.17 0.19 0.17 0.19 0.17 0.21 0.20 0.20 0.20 0.19 0.20 0.20 0.20 0.18 0.18 0.19 0.19 0.18 0.16 0.15 0.16 0.18 0.15 0.13 0.18 0.19 0.20 0.21 0.22 0.24 0.23 0.24 0.25 0.28 0.29 0.31 0.31
0.59 0.58 0.56 0.55 0.54 0.52 0.49 0.46 0.45 0.46 0.48 0.48 0.47 0.47 0.45 0.44 0.43 0.43 0.43 0.43 0.44 0.45 0.46 0.46 0.49 0.46 0.38 0.35 0.28 0.21 0.33 0.29 0.31 0.31 0.29 0.30 0.29 0.28 0.28 0.29 0.30 0.28 0.27 0.25 0.25 0.25 0.25 0.23 0.22 0.21 0.19 0.17 0.18 0.17 0.18 0.19 0.20 0.21 0.20 0.20 0.19 0.19 0.20 0.20 0.19 0.18 0.18 0.17 0.18 0.18 0.17 0.17 0.18 0.15 0.16 0.19 0.20 0.22 0.21 0.22 0.23 0.24 0.25 0.25 0.28 0.30 0.31 0.34
0.59 0.57 0.56 0.56 0.53 0.53 0.53 0.51 0.49 0.50 0.51 0.52 0.51 0.50 0.49 0.47 0.46 0.45 0.44 0.44 0.44 0.45 0.46 0.48 0.49 0.47 0.40 0.32 0.26 0.28 0.37 0.39 0.34 0.33 0.29 0.28 0.27 0.28 0.30 0.30 0.30 0.29 0.28 0.27 0.26 0.28 0.27 0.25 0.22 0.21 0.17 0.20 0.16 0.18 0.18 0.20 0.19 0.19 0.19 0.16 0.17 0.18 0.17 0.18 0.17 0.18 0.18 0.18 0.19 0.19 0.17 0.15 0.16 0.15 0.19 0.21 0.22 0.23 0.24 0.22 0.23 0.25 0.26 0.27 0.29 0.31 0.31 0.32
0.60 0.58 0.56 0.54 0.54 0.53 0.53 0.54 0.55 0.56 0.56 0.56 0.55 0.52 0.51 0.50 0.50 0.48 0.47 0.45 0.46 0.47 0.46 0.48 0.48 0.47 0.35 0.28 0.29 0.34 0.39 0.39 0.35 0.31 0.29 0.28 0.28 0.30 0.31 0.31 0.31 0.32 0.31 0.28 0.28 0.28 0.29 0.28 0.24 0.20 0.21 0.19 0.18 0.16 0.19 0.20 0.19 0.19 0.18 0.17 0.16 0.16 0.15 0.18 0.18 0.18 0.17 0.19 0.19 0.19 0.12 0.14 0.16 0.17 0.19 0.21 0.23 0.23 0.24 0.22 0.23 0.25 0.27 0.28 0.30 0.31 0.32 0.33
0.60 0.59 0.57 0.56 0.54 0.55 0.58 0.60 0.62 0.63 0.63 0.62 0.60 0.57 0.54 0.52 0.52 0.50 0.48 0.46 0.46 0.47 0.48 0.47 0.49 0.42 0.32 0.24 0.31 0.38 0.39 0.39 0.34 0.29 0.27 0.28 0.26 0.27 0.30 0.32 0.34 0.33 0.34 0.30 0.30 0.32 0.31 0.28 0.26 0.24 0.24 0.21 0.18 0.22 0.19 0.18 0.19 0.16 0.17 0.17 0.14 0.13 0.14 0.18 0.17 0.18 0.16 0.20 0.19 0.19 0.12 0.17 0.19 0.19 0.21 0.22 0.24 0.24 0.23 0.24 0.25 0.26 0.28 0.29 0.30 0.31 0.31 0.34
0.60 0.59 0.59 0.59 0.61 0.63 0.64 0.66 0.67 0.68 0.68 0.67 0.65 0.61 0.57 0.52 0.52 0.50 0.49 0.47 0.48 0.48 0.48 0.48 0.49 0.37 0.28 0.27 0.35 0.40 0.44 0.45 0.33 0.29 0.29 0.27 0.26 0.26 0.27 0.33 0.32 0.33 0.32 0.32 0.32 0.35 0.33 0.28 0.25 0.22 0.21 0.23 0.22 0.20 0.17 0.17 0.18 0.18 0.15 0.14 0.15 0.14 0.17 0.19 0.20 0.18 0.15 0.19 0.20 0.19 0.14 0.17 0.20 0.20 0.22 0.24 0.24 0.26 0.25 0.26 0.26 0.27 0.28 0.28 0.29 0.29 0.30 0.32
0.60 0.60 0.60 0.62 0.65 0.68 0.69 0.69 0.70 0.69 0.70 0.70 0.70 0.65 0.61 0.56 0.53 0.51 0.51 0.50 0.50 0.47 0.47 0.36 0.37 0.33 0.23 0.21 0.33 0.47 0.39 0.29 0.28 0.29 0.29 0.28 0.27 0.26 0.28 0.30 0.32 0.32 0.32 0.33 0.36 0.38 0.35 0.32 0.29 0.28 0.23 0.23 0.20 0.19 0.18 0.18 0.17 0.18 0.15 0.18 0.17 0.16 0.17 0.19 0.21 0.21 0.21 0.20 0.21 0.19 0.16 0.20 0.20 0.22 0.24 0.25 0.25 0.26 0.26 0.27 0.27 0.28 0.28 0.29 0.29 0.29 0.30 0.31
0.58 0.58 0.59 0.61 0.64 0.66 0.69 0.72 0.72 0.71 0.70 0.70 0.70 0.69 0.66 0.61 0.57 0.56 0.55 0.54 0.50 0.49 0.40 0.33 0.29 0.30 0.25 0.33 0.41 0.33 0.29 0.30 0.30 0.27 0.28 0.30 0.29 0.28 0.29 0.29 0.29 0.31 0.35 0.35 0.36 0.39 0.34 0.30 0.30 0.27 0.27 0.23 0.23 0.21 0.18 0.17 0.18 0.18 0.18 0.17 0.21 0.18 0.18 0.17 0.23 0.23 0.22 0.21 0.19 0.21 0.18 0.21 0.23 0.23 0.24 0.25 0.26 0.26 0.26 0.27 0.28 0.29 0.29 0.30 0.29 0.29 0.30 0.31
0.56 0.57 0.59 0.61 0.62 0.63 0.66 0.67 0.69 0.71 0.70 0.71 0.68 0.64 0.63 0.63 0.64 0.61 0.57 0.57 0.55 0.48 0.44 0.41 0.32 0.24 0.19 0.27 0.28 0.31 0.37 0.30 0.29 0.28 0.29 0.31 0.31 0.30 0.29 0.27 0.30 0.33 0.36 0.33 0.34 0.34 0.32 0.31 0.28 0.27 0.24 0.24 0.23 0.21 0.17 0.17 0.20 0.19 0.19 0.18 0.19 0.19 0.20 0.20 0.20 0.23 0.23 0.21 0.20 0.20 0.20 0.21 0.22 0.23 0.24 0.25 0.26 0.26 0.26 0.26 0.28 0.28 0.29 0.29 0.29 0.29 0.29 0.30
0.53 0.56 0.59 0.59 0.60 0.61 0.63 0.64 0.65 0.65 0.66 0.69 0.69 0.70 0.68 0.66 0.63 0.62 0.52 0.51 0.43 0.37 0.30 0.24 0.24 0.17 0.23 0.25 0.32 0.36 0.38 0.35 0.33 0.30 0.28 0.29 0.30 0.32 0.31 0.31 0.31 0.33 0.32 0.31 0.31 0.33 0.29 0.32 0.27 0.26 0.21 0.22 0.22 0.21 0.20 0.21 0.22 0.21 0.20 0.19 0.20 0.18 0.19 0.19 0.25 0.26 0.25 0.21 0.18 0.19 0.19 0.20 0.22 0.23 0.24 0.25 0.25 0.24 0.25 0.26 0.27 0.29 0.29 0.29 0.28 0.28 0.29 0.29
0.50 0.52 0.56 0.58 0.58 0.59 0.59 0.61 0.62 0.63 0.63 0.62 0.61 0.60 0.61 0.52 0.45 0.41 0.47 0.45 0.37 0.37 0.36 0.31 0.29 0.27 0.31 0.33 0.34 0.40 0.48 0.35 0.28 0.29 0.30 0.32 0.29 0.28 0.28 0.29 0.30 0.32 0.30 0.27 0.31 0.33 0.33 0.26 0.22 0.22 0.24 0.25 0.28 0.28 0.27 0.26 0.25 0.24 0.22 0.20 0.18 0.18 0.18 0.21 0.22 0.26 0.27 0.23 0.21 0.21 0.21 0.20 0.21 0.23 0.24 0.25 0.26 0.24 0.24 0.24 0.26 0.28 0.28 0.27 0.26 0.26 0.26 0.27
0.48 0.48 0.51 0.54 0.55 0.56 0.57 0.59 0.60 0.60 0.58 0.56 0.52 0.48 0.32 0.33 0.31 0.29 0.34 0.38 0.40 0.42 0.39 0.39 0.34 0.32 0.32 0.38 0.40 0.39 0.36 0.33 0.30 0.27 0.30 0.34 0.32 0.27 0.25 0.26 0.25 0.25 0.28 0.32 0.31 0.35 0.31 0.26 0.25 0.28 0.31 0.28 0.28 0.27 0.26 0.25 0.24 0.23 0.22 0.19 0.18 0.18 0.15 0.22 0.24 0.23 0.25 0.19 0.20 0.24 0.22 0.21 0.22 0.24 0.25 0.27 0.30 0.25 0.24 0.24 0.26 0.27 0.27 0.26 0.25 0.25 0.25 0.27
0.46 0.47 0.49 0.51 0.52 0.53 0.55 0.57 0.57 0.58 0.56 0.51 0.44 0.34 0.36 0.39 0.43 0.47 0.40 0.32 0.38 0.40 0.42 0.42 0.42 0.36 0.40 0.40 0.44 0.43 0.40 0.34 0.28 0.28 0.31 0.31 0.27 0.23 0.25 0.24 0.24 0.24 0.29 0.29 0.28 0.26 0.25 0.24 0.32 0.32 0.31 0.30 0.29 0.29 0.28 0.27 0.24 0.23 0.20 0.21 0.17 0.17 0.18 0.22 0.21 0.21 0.25 0.20 0.17 0.25 0.21 0.20 0.22 0.25 0.27 0.27 0.27 0.28 0.26 0.26 0.28 0.29 0.27 0.28 0.26 0.24 0.25 0.28
0.44 0.46 0.47 0.49 0.50 0.52 0.54 0.55 0.53 0.55 0.53 0.47 0.36 0.35 0.33 0.45 0.51 0.50 0.44 0.32 0.32 0.37 0.39 0.39 0.36 0.37 0.39 0.44 0.46 0.46 0.34 0.33 0.27 0.28 0.28 0.29 0.26 0.25 0.25 0.23 0.24 0.27 0.27 0.28 0.24 0.25 0.21 0.25 0.31 0.32 0.32 0.29 0.28 0.28 0.28 0.26 0.25 0.23 0.22 0.18 0.16 0.20 0.15 0.18 0.24 0.24 0.21 0.19 0.19 0.24 0.20 0.18 0.20 0.22 0.23 0.26 0.25 0.25 0.28 0.29 0.27 0.25 0.23 0.24 0.26 0.27 0.28 0.31
0.43 0.43 0.45 0.48 0.48 0.48 0.49 0.51 0.53 0.53 0.45 0.42 0.37 0.35 0.44 0.50 0.52 0.47 0.37 0.27 0.24 0.28 0.36 0.38 0.37 0.37 0.36 0.34 0.46 0.40 0.37 0.38 0.32 0.27 0.30 0.28 0.24 0.26 0.25 0.24 0.25 0.25 0.24 0.26 0.26 0.24 0.24 0.32 0.32 0.31 0.31 0.28 0.25 0.26 0.25 0.23 0.22 0.24 0.20 0.18 0.16 0.17 0.16 0.15 0.24 0.22 0.21 0.22 0.19 0.17 0.15 0.13 0.16 0.17 0.18 0.20 0.22 0.24 0.26 0.24 0.24 0.25 0.26 0.28 0.31 0.33 0.33 0.33
0.41 0.42 0.43 0.45 0.44 0.44 0.42 0.47 0.46 0.42 0.44 0.44 0.39 0.45 0.47 0.52 0.55 0.51 0.39 0.31 0.31 0.26 0.40 0.36 0.40 0.36 0.38 0.43 0.42 0.35 0.34 0.30 0.30 0.27 0.28 0.27 0.25 0.24 0.23 0.27 0.25 0.23 0.24 0.25 0.25 0.22 0.23 0.28 0.31 0.28 0.27 0.27 0.26 0.24 0.24 0.23 0.19 0.22 0.23 0.17 0.18 0.19 0.17 0.16 0.16 0.16 0.18 0.19 0.24 0.17 0.11 0.12 0.18 0.16 0.16 0.24 0.22 0.18 0.19 0.20 0.22 0.25 0.27 0.28 0.28 0.29 0.32 0.34
0.40 0.39 0.40 0.42 0.42 0.39 0.41 0.38 0.37 0.42 0.39 0.36 0.39 0.46 0.47 0.52 0.60 0.59 0.47 0.30 0.19 0.26 0.37 0.24 0.40 0.24 0.42 0.32 0.37 0.28 0.31 0.22 0.25 0.25 0.25 0.25 0.26 0.24 0.23 0.22 0.24 0.21 0.23 0.22 0.21 0.24 0.28 0.28 0.28 0.25 0.24 0.24 0.24 0.23 0.26 0.24 0.19 0.18 0.20 0.21 0.19 0.19 0.19 0.20 0.18 0.17 0.16 0.15 0.25 0.21 0.10 0.11 0.17 0.16 0.16 0.19 0.20 0.21 0.25 0.24 0.24 0.26 0.27 0.29 0.29 0.29 0.31 0.32
0.40 0.39 0.38 0.38 0.40 0.39 0.31 0.27 0.36 0.39 0.37 0.37 0.44 0.46 0.46 0.53 0.59 0.56 0.42 0.23 0.18 0.26 0.27 0.32 0.33 0.27 0.38 0.28 0.30 0.33 0.17 0.19 0.24 0.26 0.26 0.26 0.23 0.26 0.19 0.19 0.21 0.22 0.23 0.25 0.18 0.17 0.23 0.24 0.24 0.24 0.22 0.21 0.22 0.20 0.26 0.21 0.18 0.17 0.26 0.21 0.20 0.18 0.18 0.20 0.20 0.18 0.17 0.21 0.19 0.18 0.17 0.11 0.10 0.15 0.19 0.19 0.18 0.20 0.24 0.24 0.25 0.27 0.29 0.30 0.30 0.31 0.32 0.34
0.38 0.38 0.37 0.36 0.38 0.37 0.28 0.33 0.34 0.33 0.33 0.38 0.43 0.43 0.51 0.57 0.59 0.57 0.38 0.17 0.16 0.34 0.26 0.28 0.32 0.37 0.33 0.29 0.29 0.24 0.23 0.21 0.18 0.21 0.25 0.26 0.25 0.22 0.20 0.20 0.19 0.20 0.21 0.21 0.15 0.27 0.24 0.19 0.19 0.18 0.19 0.19 0.19 0.21 0.29 0.23 0.18 0.23 0.26 0.22 0.20 0.20 0.22 0.23 0.20 0.20 0.21 0.16 0.13 0.22 0.20 0.11 0.10 0.15 0.17 0.17 0.14 0.17 0.20 0.23 0.25 0.27 0.29 0.30 0.31 0.32 0.32 0.34
0.36 0.37 0.36 0.35 0.35 0.35 0.36 0.35 0.33 0.34 0.39 0.43 0.41 0.43 0.53 0.56 0.52 0.39 0.26 0.14 0.29 0.29 0.40 0.30 0.40 0.34 0.31 0.34 0.27 0.26 0.26 0.25 0.20 0.21 0.24 0.25 0.24 0.23 0.18 0.19 0.20 0.21 0.22 0.20 0.15 0.21 0.22 0.18 0.22 0.22 0.21 0.19 0.21 0.25 0.22 0.22 0.18 0.26 0.25 0.24 0.24 0.23 0.22 0.22 0.20 0.20 0.21 0.17 0.11 0.19 0.20 0.10 0.09 0.14 0.18 0.18 0.13 0.14 0.17 0.22 0.25 0.27 0.28 0.28 0.30 0.31 0.33 0.34
0.37 0.37 0.37 0.35 0.34 0.30 0.30 0.35 0.33 0.43 0.46 0.42 0.39 0.43 0.52 0.45 0.36 0.25 0.15 0.11 0.36 0.26 0.32 0.31 0.31 0.26 0.32 0.28 0.26 0.27 0.25 0.26 0.25 0.23 0.23 0.20 0.21 0.22 0.21 0.23 0.19 0.18 0.17 0.19 0.16 0.17 0.22 0.22 0.22 0.19 0.18 0.20 0.28 0.24 0.25 0.24 0.27 0.29 0.26 0.23 0.22 0.22 0.22 0.22 0.20 0.19 0.17 0.13 0.13 0.18 0.21 0.14 0.09 0.13 0.15 0.18 0.17 0.17 0.18 0.20 0.25 0.26 0.27 0.28 0.30 0.31 0.32 0.33
0.37 0.37 0.36 0.36 0.28 0.29 0.29 0.26 0.33 0.43 0.43 0.40 0.38 0.42 0.41 0.34 0.23 0.16 0.10 0.22 0.31 0.31 0.33 0.30 0.28 0.32 0.28 0.26 0.25 0.27 0.27 0.26 0.25 0.26 0.21 0.23 0.21 0.21 0.21 0.18 0.20 0.17 0.16 0.17 0.16 0.18 0.18 0.22 0.20 0.21 0.22 0.23 0.22 0.21 0.24 0.25 0.26 0.25 0.23 0.22 0.22 0.21 0.23 0.20 0.20 0.21 0.13 0.10 0.17 0.19 0.17 0.17 0.09 0.11 0.19 0.18 0.19 0.17 0.19 0.22 0.24 0.25 0.25 0.26 0.27 0.29 0.31 0.33
0.37 0.36 0.36 0.35 0.36 0.37 0.26 0.27 0.37 0.40 0.36 0.36 0.37 0.35 0.28 0.16 0.16 0.11 0.13 0.37 0.18 0.28 0.28 0.28 0.30 0.28 0.28 0.30 0.26 0.26 0.26 0.27 0.27 0.26 0.25 0.24 0.22 0.20 0.20 0.17 0.20 0.15 0.15 0.16 0.16 0.20 0.18 0.18 0.21 0.24 0.26 0.22 0.21 0.19 0.23 0.23 0.25 0.23 0.23 0.22 0.17 0.16 0.18 0.15 0.18 0.14 0.13 0.11 0.19 0.19 0.17 0.14 0.12 0.11 0.14 0.17 0.19 0.19 0.19 0.20 0.22 0.22 0.23 0.24 0.26 0.28 0.29 0.31
0.38 0.39 0.40 0.43 0.42 0.37 0.36 0.40 0.43 0.41 0.40 0.38 0.32 0.28 0.19 0.07 0.06 0.14 0.15 0.20 0.19 0.27 0.27 0.30 0.27 0.26 0.26 0.28 0.26 0.28 0.30 0.25 0.29 0.27 0.28 0.27 0.25 0.26 0.26 0.23 0.24 0.21 0.16 0.23 0.19 0.17 0.17 0.21 0.21 0.23 0.25 0.25 0.24 0.18 0.23 0.20 0.22 0.22 0.20 0.20 0.17 0.12 0.11 0.11 0.12 0.14 0.14 0.16 0.21 0.19 0.20 0.13 0.15 0.15 0.17 0.18 0.20 0.21 0.21 0.21 0.22 0.21 0.22 0.23 0.25 0.27 0.29 0.30
0.42 0.44 0.42 0.48 0.47 0.46 0.47 0.51 0.49 0.47 0.39 0.34 0.28 0.23 0.16 0.06 0.09 0.22 0.16 0.17 0.18 0.24 0.22 0.21 0.18 0.18 0.17 0.17 0.21 0.25 0.24 0.28 0.27 0.27 0.28 0.26 0.26 0.25 0.26 0.26 0.25 0.23 0.21 0.20 0.17 0.18 0.15 0.17 0.22 0.23 0.20 0.28 0.24 0.23 0.23 0.23 0.26 0.23 0.23 0.22 0.19 0.17 0.13 0.11 0.12 0.11 0.13 0.17 0.22 0.24 0.16 0.12 0.10 0.17 0.18 0.19 0.20 0.20 0.22 0.23 0.23 0.23 0.23 0.23 0.24 0.27 0.30 0.29
0.43 0.45 0.46 0.50 0.53 0.52 0.50 0.51 0.50 0.48 0.39 0.31 0.20 0.13 0.06 0.07 0.11 0.13 0.15 0.17 0.19 0.18 0.17 0.19 0.14 0.11 0.15 0.16 0.18 0.19 0.20 0.19 0.22 0.23 0.24 0.23 0.23 0.25 0.24 0.24 0.26 0.24 0.24 0.18 0.21 0.18 0.16 0.16 0.24 0.24 0.27 0.27 0.24 0.27 0.26 0.25 0.25 0.28 0.27 0.26 0.22 0.19 0.22 0.14 0.16 0.15 0.14 0.15 0.17 0.18 0.14 0.15 0.14 0.23 0.22 0.22 0.22 0.21 0.21 0.21 0.20 0.20 0.21 0.22 0.22 0.23 0.25 0.25
0.41 0.40 0.47 0.41 0.42 0.46 0.49 0.49 0.48 0.47 0.37 0.25 0.15 0.09 0.09 0.14 0.13 0.16 0.19 0.21 0.22 0.16 0.15 0.15 0.16 0.11 0.14 0.17 0.20 0.17 0.24 0.17 0.20 0.20 0.20 0.20 0.22 0.22 0.24 0.24 0.24 0.24 0.22 0.17 0.21 0.16 0.17 0.16 0.22 0.23 0.24 0.25 0.25 0.28 0.28 0.28 0.17 0.25 0.26 0.19 0.20 0.24 0.23 0.20 0.21 0.21 0.18 0.15 0.12 0.19 0.18 0.17 0.19 0.20 0.21 0.22 0.22 0.21 0.21 0.21 0.21 0.21 0.21 0.22 0.22 0.22 0.23 0.24
0.36 0.43 0.35 0.39 0.39 0.47 0.51 0.52 0.50 0.42 0.35 0.23 0.13 0.10 0.17 0.18 0.20 0.22 0.23 0.21 0.22 0.19 0.16 0.10 0.18 0.10 0.14 0.15 0.18 0.20 0.20 0.18 0.19 0.16 0.19 0.22 0.21 0.22 0.22 0.24 0.26 0.26 0.25 0.21 0.19 0.22 0.15 0.15 0.22 0.21 0.19 0.25 0.27 0.29 0.28 0.28 0.26 0.26 0.20 0.21 0.29 0.30 0.28 0.23 0.16 0.18 0.17 0.14 0.14 0.17 0.15 0.16 0.16 0.14 0.23 0.23 0.20 0.21 0.21 0.21 0.22 0.23 0.23 0.22 0.23 0.23 0.23 0.24
0.38 0.37 0.37 0.38 0.43 0.47 0.53 0.54 0.49 0.42 0.31 0.20 0.14 0.13 0.20 0.20 0.25 0.23 0.26 0.24 0.24 0.23 0.16 0.14 0.19 0.17 0.14 0.14 0.14 0.18 0.20 0.12 0.16 0.19 0.15 0.20 0.18 0.25 0.24 0.23 0.28 0.28 0.27 0.28 0.21 0.23 0.21 0.15 0.18 0.22 0.22 0.25 0.26 0.25 0.23 0.26 0.27 0.22 0.21 0.33 0.23 0.20 0.19 0.23 0.22 0.16 0.14 0.14 0.15 0.18 0.19 0.18 0.16 0.15 0.21 0.20 0.20 0.21 0.21 0.22 0.23 0.23 0.24 0.23 0.24 0.24 0.25 0.27
0.38 0.35 0.29 0.44 0.51 0.51 0.55 0.53 0.46 0.36 0.26 0.19 0.17 0.17 0.21 0.23 0.26 0.25 0.26 0.26 0.25 0.20 0.16 0.21 0.15 0.20 0.17 0.14 0.16 0.19 0.18 0.13 0.18 0.16 0.14 0.18 0.14 0.25 0.24 0.25 0.28 0.31 0.30 0.29 0.24 0.26 0.27 0.17 0.17 0.25 0.22 0.25 0.25 0.24 0.17 0.21 0.30 0.29 0.30 0.25 0.27 0.24 0.20 0.18 0.19 0.20 0.18 0.16 0.16 0.16 0.18 0.18 0.22 0.21 0.17 0.15 0.22 0.22 0.22 0.22 0.23 0.24 0.25 0.25 0.25 0.27 0.28 0.29
0.30 0.27 0.25 0.46 0.53 0.54 0.58 0.54 0.42 0.36 0.25 0.16 0.19 0.20 0.24 0.21 0.23 0.27 0.27 0.25 0.23 0.20 0.21 0.19 0.21 0.17 0.20 0.20 0.20 0.15 0.18 0.17 0.16 0.17 0.17 0.21 0.18 0.28 0.24 0.30 0.27 0.31 0.32 0.32 0.27 0.30 0.24 0.25 0.15 0.20 0.26 0.26 0.18 0.21 0.19 0.21 0.22 0.25 0.26 0.24 0.24 0.24 0.27 0.24 0.23 0.20 0.16 0.15 0.15 0.14 0.14 0.16 0.19 0.23 0.23 0.22 0.21 0.23 0.24 0.25 0.26 0.26 0.27 0.28 0.28 0.28 0.28 0.30
0.27 0.27 0.26 0.41 0.49 0.56 0.55 0.44 0.33 0.26 0.22 0.22 0.23 0.21 0.22 0.21 0.23 0.25 0.26 0.27 0.24 0.26 0.19 0.20 0.20 0.19 0.21 0.18 0.16 0.22 0.20 0.18 0.18 0.17 0.18 0.20 0.19 0.18 0.31 0.30 0.28 0.27 0.29 0.28 0.25 0.27 0.26 0.24 0.17 0.19 0.20 0.19 0.20 0.24 0.23 0.24 0.25 0.21 0.22 0.22 0.25 0.24 0.22 0.20 0.18 0.22 0.20 0.18 0.15 0.15 0.13 0.16 0.20 0.25 0.24 0.23 0.23 0.22 0.24 0.25 0.28 0.29 0.29 0.29 0.30 0.30 0.31 0.31
0.28 0.20 0.21 0.39 0.50 0.51 0.38 0.28 0.26 0.28 0.25 0.25 0.22 0.24 0.21 0.26 0.23 0.24 0.25 0.26 0.23 0.21 0.27 0.20 0.21 0.19 0.18 0.18 0.21 0.19 0.17 0.17 0.18 0.18 0.20 0.17 0.22 0.21 0.33 0.33 0.31 0.29 0.24 0.20 0.21 0.31 0.33 0.28 0.24 0.18 0.19 0.20 0.22 0.25 0.29 0.31 0.29 0.25 0.23 0.19 0.21 0.23 0.25 0.22 0.18 0.19 0.22 0.22 0.21 0.18 0.16 0.15 0.21 0.27 0.27 0.26 0.24 0.25 0.25 0.26 0.26 0.28 0.31 0.33 0.33 0.33 0.33 0.33
0.23 0.21 0.33 0.32 0.39 0.44 0.33 0.25 0.25 0.23 0.25 0.23 0.28 0.25 0.27 0.24 0.22 0.24 0.20 0.23 0.18 0.23 0.19 0.19 0.21 0.18 0.21 0.20 0.19 0.17 0.18 0.17 0.16 0.16 0.19 0.21 0.21 0.32 0.32 0.32 0.30 0.26 0.27 0.23 0.26 0.33 0.31 0.22 0.16 0.15 0.18 0.19 0.21 0.24 0.25 0.26 0.25 0.23 0.21 0.23 0.21 0.18 0.21 0.22 0.23 0.26 0.24 0.23 0.20 0.19 0.16 0.18 0.23 0.26 0.28 0.26 0.25 0.25 0.26 0.27 0.26 0.27 0.29 0.32 0.34 0.35 0.34 0.33
0.23 0.22 0.22 0.27 0.31 0.34 0.27 0.21 0.20 0.20 0.23 0.25 0.24 0.24 0.25 0.24 0.23 0.22 0.21 0.22 0.17 0.19 0.19 0.18 0.17 0.20 0.16 0.22 0.18 0.15 0.22 0.14 0.22 0.19 0.20 0.27 0.23 0.35 0.38 0.34 0.32 0.25 0.23 0.27 0.23 0.37 0.20 0.23 0.21 0.16 0.14 0.12 0.13 0.15 0.16 0.21 0.23 0.24 0.25 0.26 0.29 0.31 0.31 0.33 0.30 0.28 0.21 0.19 0.18 0.16 0.13 0.16 0.23 0.27 0.28 0.29 0.28 0.27 0.27 0.28 0.28 0.26 0.29 0.31 0.34 0.35 0.35 0.34
0.24 0.25 0.20 0.22 0.31 0.33 0.25 0.23 0.20 0.18 0.20 0.21 0.21 0.22 0.22 0.22 0.23 0.21 0.18 0.18 0.20 0.18 0.16 0.19 0.21 0.22 0.19 0.23 0.17 0.18 0.18 0.17 0.15 0.21 0.22 0.21 0.18 0.28 0.32 0.30 0.29 0.25 0.33 0.34 0.31 0.37 0.25 0.19 0.15 0.10 0.09 0.07 0.06 0.08 0.11 0.16 0.22 0.28 0.31 0.29 0.29 0.30 0.30 0.29 0.22 0.25 0.21 0.20 0.20 0.17 0.16 0.20 0.22 0.26 0.31 0.28 0.29 0.27 0.27 0.26 0.27 0.28 0.28 0.28 0.32 0.37 0.36 0.35
0.17 0.13 0.16 0.19 0.22 0.24 0.25 0.24 0.22 0.19 0.17 0.17 0.14 0.16 0.16 0.16 0.23 0.23 0.17 0.17 0.20 0.20 0.20 0.19 0.20 0.21 0.18 0.19 0.18 0.20 0.20 0.24 0.20 0.19 0.21 0.21 0.23 0.24 0.32 0.28 0.26 0.25 0.31 0.29 0.26 0.23 0.19 0.21 0.21 0.20 0.16 0.13 0.13 0.15 0.18 0.21 0.19 0.17 0.19 0.21 0.21 0.25 0.28 0.30 0.30 0.25 0.21 0.22 0.21 0.22 0.22 0.22 0.23 0.24 0.25 0.29 0.30 0.28 0.29 0.30 0.29 0.29 0.31 0.32 0.33 0.34 0.35 0.37
0.24 0.15 0.16 0.13 0.21 0.21 0.17 0.21 0.19 0.18 0.16 0.18 0.12 0.19 0.15 0.17 0.17 0.18 0.23 0.20 0.27 0.21 0.21 0.20 0.21 0.18 0.21 0.21 0.19 0.18 0.19 0.18 0.20 0.20 0.20 0.21 0.22 0.24 0.29 0.25 0.23 0.23 0.28 0.25 0.27 0.24 0.22 0.19 0.22 0.23 0.22 0.21 0.21 0.19 0.20 0.21 0.19 0.20 0.19 0.17 0.19 0.19 0.20 0.22 0.22 0.18 0.23 0.22 0.18 0.24 0.28 0.26 0.27 0.30 0.31 0.30 0.30 0.33 0.33 0.33 0.32 0.32 0.33 0.34 0.35 0.36 0.38 0.40
0.18 0.21 0.25 0.22 0.16 0.13 0.15 0.18 0.19 0.19 0.19 0.18 0.17 0.19 0.16 0.16 0.19 0.17 0.24 0.23 0.20 0.25 0.16 0.24 0.20 0.21 0.21 0.19 0.19 0.15 0.16 0.19 0.20 0.16 0.20 0.21 0.21 0.23 0.23 0.23 0.21 0.23 0.23 0.23 0.30 0.26 0.22 0.17 0.20 0.21 0.17 0.16 0.16 0.16 0.18 0.18 0.19 0.19 0.18 0.18 0.18 0.18 0.18 0.17 0.17 0.19 0.21 0.19 0.17 0.20 0.24 0.26 0.28 0.29 0.30 0.33 0.34 0.33 0.34 0.40 0.39 0.40 0.36 0.36 0.36 0.36 0.38 0.40
0.24 0.24 0.22 0.23 0.20 0.21 0.18 0.20 0.20 0.18 0.17 0.18 0.20 0.19 0.17 0.18 0.18 0.23 0.17 0.20 0.20 0.23 0.23 0.15 0.20 0.22 0.23 0.25 0.20 0.16 0.19 0.15 0.15 0.22 0.22 0.22 0.21 0.20 0.17 0.19 0.21 0.25 0.25 0.23 0.24 0.27 0.24 0.18 0.19 0.19 0.17 0.16 0.15 0.16 0.18 0.18 0.18 0.17 0.16 0.16 0.17 0.17 0.17 0.18 0.19 0.20 0.21 0.20 0.21 0.20 0.19 0.21 0.25 0.26 0.27 0.29 0.35 0.38 0.38 0.38 0.39 0.42 0.42 0.42 0.41 0.39 0.40 0.39
0.19 0.21 0.20 0.25 0.22 0.23 0.22 0.22 0.20 0.19 0.19 0.22 0.17 0.22 0.19 0.19 0.19 0.23 0.23 0.21 0.17 0.22 0.27 0.18 0.20 0.23 0.22 0.23 0.22 0.19 0.20 0.21 0.21 0.19 0.22 0.21 0.19 0.19 0.18 0.19 0.17 0.21 0.22 0.21 0.22 0.23 0.20 0.16 0.18 0.18 0.16 0.13 0.13 0.15 0.16 0.16 0.15 0.14 0.15 0.16 0.17 0.18 0.18 0.18 0.19 0.18 0.18 0.19 0.21 0.21 0.20 0.19 0.23 0.27 0.29 0.33 0.37 0.38 0.37 0.34 0.36 0.45 0.40 0.39 0.39 0.38 0.38 0.38
0.31 0.31 0.27 0.21 0.19 0.21 0.22 0.22 0.20 0.19 0.17 0.24 0.18 0.24 0.19 0.21 0.20 0.24 0.20 0.25 0.21 0.19 0.23 0.22 0.24 0.24 0.24 0.23 0.23 0.22 0.25 0.26 0.26 0.25 0.25 0.23 0.17 0.22 0.18 0.19 0.21 0.17 0.18 0.17 0.18 0.18 0.20 0.15 0.18 0.18 0.15 0.13 0.14 0.16 0.16 0.17 0.17 0.16 0.15 0.14 0.14 0.15 0.14 0.14 0.14 0.17 0.19 0.20 0.21 0.21 0.20 0.19 0.20 0.24 0.30 0.32 0.33 0.33 0.33 0.34 0.36 0.38 0.41 0.40 0.39 0.39 0.39 0.39
0.35 0.35 0.32 0.26 0.18 0.20 0.18 0.21 0.20 0.19 0.18 0.24 0.18 0.21 0.18 0.22 0.24 0.23 0.17 0.23 0.24 0.25 0.26 0.26 0.26 0.24 0.21 0.21 0.21 0.25 0.32 0.29 0.27 0.26 0.26 0.26 0.26 0.24 0.24 0.22 0.22 0.19 0.17 0.16 0.18 0.15 0.15 0.14 0.12 0.12 0.11 0.10 0.11 0.14 0.15 0.16 0.16 0.13 0.11 0.11 0.14 0.15 0.16 0.17 0.20 0.22 0.24 0.25 0.22 0.20 0.17 0.19 0.21 0.26 0.28 0.28 0.31 0.32 0.33 0.34 0.36 0.39 0.41 0.42 0.42 0.39 0.40 0.41
Wind_Speed
8 8 8 8 8 8 8 7 8 8 8 8 8 9 9 9 10 10 10 11 11 11 12 12 12 12 12 12 12 12 12 13 13 14 14 13 12 13 13 12 13 13 13 13 14 14 14 15 15 15 15 15 15 15 15 15 15 15 14 15 15 14 13 12 13 13 11 11 13 14 15 15 15 14 14 14 13 13 13 13 13 12 12 11 11 12 12 12
8 7 7 7 7 7 7 7 7 7 7 7 8 8 8 8 9 9 10 10 10 11 11 11 11 11 11 11 11 11 11 12 12 12 11 11 11 11 11 11 12 12 12 12 13 14 14 15 15 15 14 14 14 14 14 14 15 15 14 14 14 13 12 11 12 12 11 12 13 14 15 14 15 15 15 15 14 14 14 13 14 14 12 12 12 12 12 12
8 7 7 7 6 6 6 6 6 6 6 6 7 7 7 8 8 8 9 9 10 10 10 10 10 10 10 10 10 10 10 11 11 10 10 10 10 10 10 11 11 11 11 11 12 13 13 13 14 14 14 14 13 14 14 14 15 14 14 14 13 12 12 12 12 12 11 12 13 13 14 14 14 14 15 15 14 15 15 14 14 14 14 13 12 13 13 13
8 7 6 6 6 6 6 6 6 6 5 6 6 6 6 7 7 7 8 8 9 9 9 9 9 9 9 9 9 9 9 10 10 9 9 9 9 10 10 10 10 11 10 10 11 12 12 12 13 14 14 13 13 14 14 14 14 13 14 13 11 12 12 12 12 12 11 12 13 13 14 14 14 14 15 15 14 15 15 14 14 14 14 13 13 13 13 13
7 7 6 6 6 5 5 5 5 5 5 5 5 5 6 6 6 7 7 7 7 7 7 8 8 8 8 8 8 8 9 9 9 8 8 9 9 9 9 9 10 10 10 10 11 11 11 12 13 13 13 12 13 14 14 14 13 13 14 12 10 12 12 11 12 11 12 12 13 14 14 14 14 15 15 15 15 13 13 13 13 14 14 14 14 14 14 14
7 7 6 6 6 5 5 5 5 5 5 5 5 5 6 6 6 6 6 6 6 6 6 6 7 7 7 7 8 8 8 7 8 8 8 8 8 8 8 9 9 9 10 10 10 11 11 12 13 13 13 12 13 13 13 14 13 13 13 13 12 12 11 11 12 11 12 13 13 13 13 13 14 15 15 16 15 13 12 13 13 13 13 13 14 14 14 14
7 7 6 6 6 5 5 5 5 5 5 5 5 5 5 5 5 5 5 5 5 5 5 5 5 5 5 6 7 8 8 6 7 8 8 8 7 7 8 8 8 8 9 9 10 11 11 12 12 12 12 12 13 13 12 13 14 13 12 13 13 12 12 11 12 12 13 13 13 13 13 15 15 14 14 16 16 14 13 14 14 14 13 14 14 15 15 15
7 7 6 6 6 6 6 5 5 5 5 5 5 5 5 5 5 5 4 4 4 4 4 4 4 4 4 6 7 7 7 7 7 8 8 8 7 7 7 7 8 8 8 8 9 10 10 11 11 12 12 11 12 13 12 13 14 14 12 12 13 12 12 12 12 13 13 13 13 14 15 15 15 14 15 16 15 14 14 14 15 14 14 14 15 15 15 15
7 7 6 6 6 6 6 6 6 6 6 6 5 5 5 5 5 5 5 4 4 4 4 4 4 4 5 6 7 7 6 6 7 8 8 8 7 7 7 7 8 8 8 8 8 9 10 11 11 12 11 11 12 12 13 13 13 13 12 12 13 12 12 13 13 13 13 14 14 15 15 15 14 15 17 16 15 15 15 16 16 15 15 15 15 15 15 15
7 7 6 6 6 6 6 6 6 6 6 6 6 6 5 5 5 5 5 5 5 4 4 4 4 4 5 6 7 7 6 7 7 8 8 8 8 8 7 7 8 8 8 8 8 9 9 10 10 11 11 11 12 11 13 13 11 12 13 12 12 12 13 13 13 13 14 14 14 16 15 15 15 16 17 15 15 16 16 16 16 16 16 15 15 15 15 15
7 6 6 6 6 6 5 6 6 6 6 6 6 6 6 6 6 6 6 6 5 5 5 5 5 5 6 7 7 6 6 7 7 8 8 9 8 8 7 7 8 8 8 9 8 8 9 9 10 11 11 11 12 11 12 12 11 12 13 13 13 13 14 14 14 14 15 14 14 16 15 15 16 17 16 13 15 16 16 16 16 16 16 15 15 15 15 15
7 6 6 6 5 5 5 5 5 6 6 7 7 7 7 7 6 6 7 6 6 6 6 6 6 6 6 8 7 6 7 7 7 8 8 9 9 9 8 8 8 8 8 9 9 9 9 9 11 11 10 11 12 11 11 11 12 13 14 14 14 15 15 16 15 15 16 15 14 15 16 17 18 17 15 13 15 16 16 16 16 16 16 16 15 15 15 15
7 6 6 5 5 5 5 5 5 6 6 7 7 7 7 7 7 7 7 7 7 7 7 7 7 7 8 8 6 7 8 8 8 9 9 9 10 9 9 9 9 9 9 9 9 9 10 10 11 11 10 11 11 11 11 11 12 13 14 14 14 15 16 16 16 15 16 15 14 16 16 16 17 17 15 14 15 16 16 16 16 16 16 16 16 16 16 16
7 6 5 5 5 5 5 5 6 6 7 7 7 7 8 8 8 7 8 8 7 7 7 7 7 8 8 8 7 8 8 9 9 9 10 10 10 10 9 9 9 9 9 9 9 10 10 10 11 11 11 11 10 11 11 11 13 13 13 14 14 15 14 14 15 16 16 14 14 16 16 15 16 16 15 15 16 16 16 16 16 16 16 16 16 17 17 17
7 6 5 5 4 4 5 5 6 6 7 7 7 8 8 8 8 8 8 8 8 8 8 8 8 8 9 8 8 8 8 9 10 10 10 10 10 11 10 10 9 9 9 9 9 9 10 10 11 11 10 10 11 12 12 12 13 13 13 14 15 15 13 12 14 16 16 14 15 17 16 15 15 16 15 16 17 17 16 16 16 17 17 17 17 18 18 18
7 6 5 5 5 5 5 5 6 6 6 7 7 7 8 8 8 8 8 8 8 8 8 9 9 10 10 8 8 9 9 9 9 10 10 10 10 10 10 10 10 9 9 9 9 9 9 10 10 10 10 11 12 13 12 12 13 13 14 14 13 15 14 12 13 15 16 15 16 18 16 15 15 16 15 16 18 18 17 17 17 17 18 18 18 19 19 19
7 6 5 5 5 5 5 6 6 6 6 6 6 6 7 7 7 7 7 8 8 8 9 9 9 10 10 9 9 9 9 9 9 10 10 10 10 10 10 10 10 10 9 9 10 10 10 10 10 10 11 12 12 12 13 13 13 13 14 14 14 15 15 13 13 15 16 16 17 19 19 17 15 16 16 17 18 18 18 18 18 18 18 19 19 20 20 20
8 7 6 5 5 5 6 6 6 6 6 6 6 5 6 6 7 7 7 7 8 9 9 10 10 10 10 10 10 9 9 9 10 10 10 10 10 10 10 10 10 10 10 10 10 11 11 11 11 11 12 12 13 13 14 13 13 13 14 15 14 15 16 16 14 14 16 18 18 19 20 20 18 17 18 18 19 19 19 19 19 19 19 20 20 21 21 21
8 7 6 6 6 6 6 6 6 6 6 6 5 5 5 6 7 7 7 8 8 9 9 9 10 10 9 9 9 9 9 9 10 11 11 11 11 11 11 11 11 11 11 11 11 11 11 11 12 13 13 13 13 14 14 12 12 13 13 14 14 15 16 15 14 14 16 18 19 20 20 21 20 19 19 20 20 21 21 21 21 20 20 20 21 21 21 21
9 8 7 6 6 7 6 6 6 6 6 5 5 6 6 7 8 7 8 8 8 9 9 9 10 10 9 9 9 9 10 10 10 11 11 11 11 11 11 11 12 12 12 11 10 11 11 12 13 12 12 12 12 12 13 12 12 13 13 15 15 15 16 15 14 15 16 18 20 21 21 21 21 21 21 21 21 22 23 22 22 22 22 21 21 21 21 21
9 8 7 7 7 7 7 6 6 6 6 5 5 6 6 7 8 7 8 9 8 8 9 10 11 11 10 10 10 10 10 10 10 10 11 12 12 12 12 12 13 12 11 11 10 10 12 13 12 11 11 11 12 12 13 13 13 14 14 15 15 16 15 15 15 15 16 18 19 19 21 22 23 23 23 22 22 22 23 23 22 22 22 21 22 22 22 21
9 9 8 8 8 8 7 7 6 6 6 5 5 5 5 7 8 8 9 10 9 8 9 10 11 11 11 11 11 11 11 11 11 11 11 12 13 13 12 13 14 12 11 11 12 12 13 13 11 11 11 11 12 13 13 13 13 14 14 15 15 14 14 14 15 15 16 17 18 18 19 21 22 23 23 24 23 23 22 22 22 22 21 21 21 21 21 20
10 9 9 8 8 8 8 7 7 7 6 6 5 5 5 6 7 7 9 9 9 8 9 9 10 10 10 11 11 12 12 11 11 11 11 13 14 14 13 14 14 13 12 14 13 13 13 12 10 11 13 13 13 13 14 13 14 14 14 14 14 13 14 14 13 14 15 16 17 18 19 20 21 22 23 24 24 23 22 22 22 21 21 21 20 19 18 19
10 10 9 8 8 8 8 8 7 6 6 6 6 6 6 6 6 5 6 7 6 7 8 8 9 9 9 10 11 12 12 11 12 11 12 14 13 13 14 13 13 14 14 14 15 14 13 11 11 12 14 14 14 14 14 14 14 14 14 15 15 13 14 14 12 12 14 15 16 17 18 19 18 19 19 20 21 22 22 22 22 21 21 20 19 18 18 18
11 10 10 9 9 9 9 8 7 6 7 6 6 6 6 6 5 5 5 5 4 4 6 6 7 7 8 9 10 11 11 11 11 11 12 14 13 13 13 13 13 14 13 13 15 15 13 12 13 14 14 15 15 15 15 15 15 15 15 15 15 14 14 14 13 13 14 14 14 14 15 14 14 16 16 15 16 18 19 20 20 20 19 19 19 19 18 18
11 11 10 10 9 9 9 7 6 7 7 6 6 7 7 6 5 4 5 5 3 3 5 5 6 6 6 7 8 9 9 9 9 10 12 13 13 13 12 13 13 13 13 13 14 14 13 13 14 14 15 16 16 16 15 15 15 14 13 13 13 14 13 13 13 14 13 13 12 14 15 13 13 15 16 15 15 16 16 18 19 19 19 19 19 19 18 18
11 11 10 10 9 9 8 7 7 7 7 6 7 8 8 7 5 5 6 5 3 4 5 4 5 5 5 6 7 8 7 7 7 8 10 10 11 12 12 12 12 12 12 12 13 13 12 12 13 14 15 15 15 15 14 14 15 13 11 12 13 14 14 13 14 14 13 13 14 15 16 16 16 15 14 15 16 16 17 17 18 18 18 18 19 19 18 18
11 10 10 9 9 8 7 7 7 7 7 7 8 9 8 6 6 6 7 6 5 6 6 5 5 6 6 7 8 8 7 7 7 7 8 9 9 11 12 11 11 10 11 12 12 10 11 12 13 13 13 14 14 12 11 13 14 12 11 12 12 13 14 14 14 14 14 14 15 15 15 16 16 14 14 15 17 17 18 18 18 18 18 18 19 19 19 19
11 10 9 9 8 7 7 7 7 7 7 8 9 9 7 6 6 7 8 7 6 6 6 7 7 7 8 7 8 8 8 8 7 6 7 8 9 9 10 10 10 9 10 12 12 10 11 11 12 12 13 13 12 10 11 13 13 11 11 11 12 13 14 14 15 15 14 15 16 15 14 15 15 14 14 15 16 17 18 18 17 18 18 18 19 19 19 19
11 9 8 8 7 7 6 6 7 7 8 8 9 9 7 7 7 8 7 7 7 7 7 7 7 8 9 8 7 8 8 8 7 7 8 8 8 9 8 8 10 10 10 12 13 12 10 10 11 13 13 12 11 10 11 12 11 11 12 12 13 14 14 14 15 15 15 17 16 15 14 16 15 14 14 15 15 16 17 17 17 17 18 18 19 19 19 19
11 9 8 7 7 7 7 6 7 7 8 9 9 8 7 7 8 8 7 7 7 7 8 8 8 9 9 8 8 8 9 9 8 9 9 8 9 10 9 9 10 11 12 13 14 13 12 12 12 13 14 13 12 12 12 12 12 13 13 13 14 14 14 15 15 15 16 16 14 13 14 16 16 14 13 14 14 15 16 16 16 17 18 19 19 20 20 20
10 9 7 7 7 7 7 7 7 8 9 9 9 8 7 7 7 7 6 7 8 7 8 9 9 10 10 10 9 9 9 9 9 10 11 10 10 11 11 11 10 11 12 12 11 12 14 14 14 13 14 15 15 14 13 13 15 15 15 15 15 15 15 16 15 15 17 16 13 13 14 16 17 17 16 16 15 16 16 16 17 18 18 19 20 20 21 21
9 8 7 7 7 7 7 8 8 8 9 9 9 7 8 8 6 5 5 6 7 7 8 10 11 12 12 11 10 10 10 10 10 11 11 11 12 12 13 13 13 13 13 12 12 13 14 13 14 14 14 16 17 16 14 14 15 17 16 17 17 16 16 17 16 16 18 16 14 14 15 17 18 18 19 18 17 17 17 18 18 18 19 19 20 20 21 21
8 7 7 7 7 7 8 8 8 9 9 9 8 8 8 8 7 6 7 7 7 8 9 10 11 12 11 10 10 10 11 10 10 11 12 12 13 13 13 14 15 16 15 15 16 16 15 14 13 14 13 14 17 17 17 16 16 18 18 18 19 19 18 18 17 17 17 15 14 15 16 18 17 15 15 16 17 18 18 19 19 19 19 20 20 21 21 22
7 7 7 7 8 8 9 8 8 9 9 9 9 9 9 8 7 7 8 8 9 10 11 11 12 12 11 10 9 10 10 11 11 12 13 13 13 13 13 13 15 16 16 16 15 16 17 16 14 14 13 14 16 17 18 18 18 18 18 20 22 21 20 20 19 18 18 17 18 18 19 20 19 18 18 18 18 19 19 19 20 20 20 20 20 21 22 22
7 7 8 8 8 9 9 9 9 10 10 10 9 9 9 8 8 9 9 10 10 11 12 12 11 11 11 10 10 9 10 11 12 12 13 13 13 13 13 13 14 15 16 16 15 16 17 16 14 15 16 16 18 18 18 19 18 17 19 21 22 22 21 22 21 19 19 22 23 23 23 23 22 23 23 21 20 20 20 20 20 21 21 21 21 21 22 22
7 8 8 9 10 10 10 10 10 11 11 11 10 10 9 9 10 10 10 11 11 12 13 12 10 11 11 11 11 10 10 12 12 12 12 13 12 12 12 12 13 14 15 16 16 16 18 18 17 18 18 18 18 19 20 22 21 20 21 20 20 20 22 22 22 20 21 24 25 25 25 24 23 22 20 21 21 21 21 21 21 22 21 21 21 21 22 22
8 8 9 11 12 11 11 11 12 12 12 11 10 10 10 10 10 11 11 12 12 12 13 13 12 12 13 13 13 13 13 13 13 13 14 14 13 13 13 13 13 13 14 15 16 16 18 20 20 19 19 18 18 20 21 21 22 23 23 21 20 22 23 22 22 23 24 24 24 25 26 26 25 23 20 21 22 22 22 22 21 22 22 22 21 21 22 22
9 9 10 13 14 12 12 13 12 13 12 11 10 10 11 10 10 11 12 13 13 13 13 13 13 13 13 14 15 15 15 15 15 15 15 15 14 14 15 15 14 14 15 16 17 17 18 20 21 19 18 19 19 21 22 21 20 22 23 23 24 25 25 25 24 24 25 25 25 27 27 27 26 25 24 23 23 23 23 22 22 22 22 22 22 22 22 22
10 10 11 14 15 13 13 13 13 13 13 12 12 11 11 11 11 12 13 13 13 13 13 13 13 14 15 15 16 16 15 15 16 16 15 15 15 15 16 17 17 17 18 19 19 19 19 21 22 21 20 21 21 21 23 23 21 21 22 23 25 25 25 27 27 27 27 27 26 27 28 28 26 25 25 25 23 22 23 22 22 22 23 23 23 23 23 23
11 11 12 15 15 14 14 13 13 13 13 12 12 12 12 12 13 13 13 13 14 14 14 15 15 16 16 16 16 16 16 16 16 16 16 16 16 16 16 17 18 18 19 20 20 20 20 21 23 24 24 25 24 23 23 23 23 23 24 25 25 26 26 27 28 29 30 30 28 27 29 30 26 23 23 24 23 23 23 24 24 23 22 23 23 24 23 23
12 12 13 16 16 15 15 14 13 14 13 13 13 13 13 14 14 14 14 14 15 14 15 15 16 16 16 16 16 16 16 17 17 17 16 16 16 16 16 17 18 19 19 20 21 20 21 22 25 27 27 28 29 28 27 27 28 28 28 28 28 28 28 29 29 28 28 30 30 30 32 31 27 24 25 25 24 24 24 24 25 24 23 23 24 24 24 24
13 13 14 17 17 16 15 14 14 14 14 14 14 14 14 14 14 15 15 15 15 14 14 15 15 15 16 16 16 17 17 17 17 17 17 17 16 15 16 17 18 19 19 20 20 20 20 22 24 27 28 29 30 30 30 31 31 30 29 29 29 29 30 30 31 30 30 31 32 31 32 31 29 28 29 28 28 26 26 26 26 25 24 24 25 25 25 25
14 14 15 17 18 16 15 15 15 15 15 15 15 15 14 15 15 15 15 15 15 15 15 15 15 16 16 16 17 17 17 16 16 16 16 17 16 15 17 18 18 19 19 19 19 19 20 21 23 25 26 26 27 25 25 25 25 24 25 26 27 28 29 30 31 32 33 34 35 34 34 33 30 28 29 29 30 29 28 28 28 27 25 25 26 26 26 26
15 15 15 17 17 16 15 15 16 16 16 16 16 16 15 15 14 15 16 16 16 16 16 16 16 16 17 17 17 18 18 17 17 17 17 18 18 17 18 19 20 20 19 19 19 20 22 22 23 24 24 25 24 23 22 22 22 24 25 27 28 29 30 31 31 31 33 35 37 37 36 36 34 33 31 30 30 31 31 30 30 29 27 26 26 27 27 26
17 17 17 17 17 16 15 16 18 17 17 17 17 16 16 16 15 15 16 17 16 16 17 17 17 17 17 17 18 18 18 18 19 19 19 19 20 19 20 21 22 22 20 20 21 22 23 24 25 25 26 27 28 28 27 26 27 28 29 31 31 31 32 31 31 32 34 34 36 37 36 36 37 36 34 31 29 29 30 30 30 29 28 27 27 28 28 27
17 17 18 19 18 17 17 17 18 18 17 17 17 16 16 17 16 16 16 16 16 17 17 17 17 17 17 17 18 18 19 19 20 20 21 21 21 21 22 22 23 23 22 21 22 22 23 25 26 27 28 30 31 32 31 30 31 32 32 33 33 34 34 33 34 36 35 35 37 38 37 36 35 35 34 34 33 31 30 29 28 29 29 29 28 28 28 27
18 17 18 19 19 19 19 19 19 19 18 17 17 17 17 18 17 17 16 16 17 17 17 17 17 17 17 18 18 19 19 19 20 21 21 21 21 22 22 23 23 23 22 23 22 22 23 26 27 28 30 31 32 33 33 32 32 33 34 34 35 35 35 35 37 38 37 36 38 39 40 39 38 37 37 36 35 35 33 31 30 30 30 30 30 29 29 28
18 18 18 19 20 20 20 21 21 20 19 18 18 18 18 18 17 17 17 17 18 17 17 18 18 17 18 18 19 19 19 20 21 21 20 21 22 22 22 22 22 21 22 23 23 22 23 25 26 27 30 32 33 33 33 33 33 34 35 36 36 36 36 36 37 37 37 39 39 41 43 42 40 40 40 38 37 36 36 35 34 33 31 31 30 29 29 28
20 20 20 20 20 20 20 21 21 20 19 18 18 18 18 19 18 18 18 18 18 18 18 19 19 19 19 20 20 20 21 21 22 22 21 22 22 22 22 21 21 21 22 23 23 23 24 25 26 26 29 32 33 32 32 33 33 34 35 36 36 36 36 35 35 36 36 38 38 39 41 42 41 41 41 39 38 37 37 38 37 35 33 33 31 30 29 28
20 21 21 22 21 20 21 21 20 20 19 18 18 18 18 19 18 18 19 19 19 20 19 19 19 19 20 20 21 22 21 22 23 23 23 24 24 23 23 23 23 23 24 24 24 24 25 26 27 27 29 31 31 31 31 32 32 34 36 37 36 35 34 34 34 33 33 34 35 37 38 38 39 39 39 39 38 36 37 37 37 36 36 34 32 31 29 28
22 21 22 23 22 21 21 21 20 20 18 18 19 19 19 19 18 19 19 18 18 19 19 19 20 20 21 21 22 22 21 22 24 25 26 26 27 27 26 26 27 27 26 25 25 26 26 27 27 27 29 31 31 31 30 30 30 32 33 32 32 32 32 32 32 32 32 31 32 33 34 35 36 36 37 38 37 35 34 34 33 33 34 33 31 30 29 27
Wind_Direction
306 302 298 296 291 285 280 278 279 278 276 273 271 268 265 262 259 257 256 255 256 256 256 256 256 256 255 253 252 251 248 243 239 237 239 239 237 233 232 230 227 227 229 232 229 225 219 218 217 217 218 218 221 220 217 222 222 221 226 228 229 228 226 224 222 225 226 216 211 212 214 214 210 214 218 220 223 221 225 231 232 235 241 244 243 242 239 240
308 304 300 297 294 287 281 279 279 278 275 273 269 266 263 260 259 257 257 257 257 257 257 257 256 256 255 252 250 247 243 239 236 233 231 230 227 223 221 221 221 222 225 227 223 218 215 214 213 213 216 216 217 215 214 217 218 221 225 226 228 227 224 227 226 227 229 219 211 214 218 219 215 215 219 224 224 224 228 230 231 234 237 241 242 240 239 239
309 304 300 297 295 289 285 281 279 277 274 272 268 265 262 259 259 257 258 258 257 257 257 257 256 255 253 250 247 244 239 235 229 221 219 220 218 216 216 218 218 218 221 223 219 216 217 214 211 213 214 216 216 214 215 214 217 222 224 227 227 225 225 228 228 227 228 221 213 215 220 221 219 219 223 227 226 228 233 233 234 237 236 238 238 237 238 239
311 304 298 294 293 290 287 283 279 276 274 273 270 267 264 262 261 260 259 258 256 256 256 256 255 254 251 248 244 238 233 228 218 211 212 213 212 214 215 217 217 217 219 219 216 215 217 214 211 214 215 216 216 215 216 214 218 221 222 230 228 223 226 224 224 224 225 225 218 216 220 222 223 225 227 229 230 235 237 235 240 242 236 234 235 235 236 239
313 307 297 290 290 290 288 284 280 278 277 277 274 271 267 265 264 262 259 257 256 255 255 254 252 251 247 243 238 228 226 223 209 205 208 207 209 211 213 215 215 216 215 213 212 212 214 214 212 214 216 216 214 215 217 215 220 223 224 234 231 226 227 221 221 223 224 226 221 219 222 222 224 228 230 231 235 240 238 236 243 244 237 233 233 235 237 240
314 309 300 289 286 288 287 284 281 278 279 280 278 275 270 266 263 260 257 255 254 254 253 251 249 247 241 236 226 219 223 218 200 201 202 201 204 206 209 208 209 211 210 210 211 212 213 212 211 213 216 217 214 215 217 214 221 228 227 230 230 231 229 221 221 226 227 225 222 223 225 225 227 230 232 236 240 242 241 241 243 242 238 235 235 237 239 241
313 311 304 292 284 284 284 283 281 279 278 278 277 274 270 264 259 255 253 251 250 251 249 247 245 241 234 224 212 213 218 204 195 199 195 196 200 201 202 197 199 203 206 210 212 213 212 211 213 214 216 218 215 216 217 215 221 231 230 223 226 232 228 224 225 229 232 229 227 230 230 230 233 233 234 238 240 240 241 241 241 240 239 238 238 239 241 241
313 310 305 296 287 282 279 279 279 277 277 276 273 270 267 262 254 250 247 245 244 244 242 239 236 230 221 211 207 207 203 192 195 198 194 197 198 198 199 195 199 202 207 215 215 217 217 216 217 216 218 221 218 217 217 217 222 231 233 222 224 229 226 227 229 230 234 233 233 234 234 235 238 241 240 239 239 239 240 239 239 239 238 239 239 239 241 242
313 308 303 298 291 282 277 276 275 274 274 274 270 266 264 259 251 246 242 239 239 240 237 232 229 225 214 208 212 208 194 193 200 198 198 201 201 202 205 206 208 211 214 218 219 221 222 221 219 219 224 223 219 218 218 222 226 229 229 221 222 226 225 229 230 232 235 236 237 238 238 238 239 244 243 240 239 239 239 238 238 238 238 240 240 240 241 241
315 308 302 297 293 285 278 274 272 271 271 270 269 265 261 255 250 244 239 237 238 238 235 232 228 226 215 210 219 214 197 201 204 203 206 207 208 210 214 216 219 223 223 221 222 225 227 226 222 225 229 223 222 224 222 228 232 227 224 222 225 227 228 233 234 235 238 239 242 242 241 241 240 243 243 239 238 239 237 237 237 238 239 240 240 241 242 242
319 312 304 297 292 286 281 276 272 269 269 268 266 264 259 254 250 244 239 237 238 238 236 234 230 227 221 221 227 216 202 208 211 212 214 214 216 218 222 226 229 232 230 226 227 230 233 230 223 226 231 225 222 225 226 231 233 227 225 225 229 232 232 236 237 238 241 241 244 246 245 243 241 242 242 238 237 238 236 236 237 238 239 240 240 241 243 243
324 318 310 302 295 290 286 280 274 270 268 267 264 263 259 255 251 245 241 238 237 237 236 236 234 230 226 228 229 217 213 219 220 222 223 221 222 224 227 233 234 236 236 234 233 235 237 230 226 229 231 227 224 227 231 233 233 229 230 232 232 236 237 237 239 243 244 244 245 248 247 243 239 237 238 239 239 237 236 236 237 239 240 240 240 241 243 244
327 323 318 311 303 296 291 284 279 274 271 268 265 262 258 254 252 246 241 237 237 238 238 238 235 232 233 230 226 224 225 226 228 230 229 225 225 228 232 236 236 236 239 242 241 239 239 235 234 234 232 233 231 231 232 232 234 231 235 241 239 241 241 237 241 245 243 245 245 245 249 243 234 232 236 238 239 236 236 237 238 240 241 242 242 243 244 244
328 326 323 319 312 304 297 290 285 280 276 272 268 263 258 254 251 246 241 237 237 239 238 238 235 234 237 233 229 232 234 235 235 235 232 227 228 230 234 236 235 237 241 245 244 241 241 238 237 233 234 241 234 229 231 233 236 235 238 244 243 246 243 236 243 244 241 245 242 242 249 246 232 230 235 238 238 236 236 238 239 241 243 245 245 246 247 246
332 328 325 321 316 310 305 299 294 288 282 277 271 266 259 254 250 244 241 238 239 240 238 238 236 238 239 234 234 238 239 238 238 237 234 230 231 231 232 234 235 238 241 243 242 241 239 236 235 232 234 239 232 230 235 236 238 238 241 244 242 245 244 239 244 243 242 243 237 238 247 246 234 231 236 239 238 238 239 240 241 243 245 247 247 248 249 249
340 334 328 323 318 312 309 305 301 296 288 281 275 267 258 253 249 245 242 241 240 239 239 239 237 242 244 238 237 239 241 241 239 238 234 230 233 233 232 233 235 239 241 240 240 239 237 237 239 238 236 234 233 235 238 239 241 239 243 247 243 243 245 244 244 242 244 243 235 237 246 248 238 233 238 240 238 239 242 243 244 246 248 249 251 250 251 252
349 342 336 330 324 317 312 307 304 302 293 285 278 268 257 247 242 242 244 245 244 240 243 245 243 246 246 241 240 241 245 247 242 239 233 230 234 235 233 234 235 239 239 236 237 238 238 239 240 240 240 239 239 241 241 243 244 240 244 250 247 247 250 250 246 242 243 244 240 239 244 250 244 237 238 240 240 242 245 246 247 249 252 252 253 253 252 251
357 351 344 336 331 324 318 314 308 305 298 287 278 271 259 243 236 239 247 250 247 243 245 245 245 247 243 240 242 245 249 249 243 239 234 232 235 236 236 237 238 238 236 234 237 240 240 240 242 243 242 241 241 242 245 250 249 244 245 250 251 249 251 252 250 245 244 245 244 243 243 248 248 242 241 242 242 245 248 251 252 253 254 255 255 254 253 252
358 354 350 342 335 329 324 320 315 311 303 289 274 268 258 246 241 244 253 252 247 249 249 244 245 248 244 239 244 249 251 248 243 239 235 233 235 236 237 239 240 238 238 239 239 242 244 242 244 246 243 241 242 244 249 256 255 250 251 255 255 253 252 252 252 252 251 249 247 246 246 248 249 246 244 243 244 248 252 254 255 255 256 257 256 255 254 253
353 351 348 345 341 336 330 323 320 319 311 294 275 264 261 262 252 249 256 251 251 259 256 249 249 248 245 242 246 251 250 245 243 241 237 236 237 236 237 240 240 240 242 244 243 246 249 246 244 246 246 243 245 248 252 256 254 254 256 257 257 257 257 253 253 254 254 253 251 249 250 251 251 250 248 246 246 250 254 255 255 255 256 257 256 255 254 254
348 345 342 340 340 338 336 330 324 325 321 307 291 275 272 276 264 260 264 253 253 263 257 253 252 250 249 248 250 253 250 245 243 242 239 239 239 238 237 239 241 241 242 247 248 248 250 249 245 248 252 248 247 247 249 251 251 253 256 258 257 257 257 256 257 256 253 255 253 250 252 254 253 253 252 250 250 252 253 254 254 254 256 257 256 256 254 253
342 340 336 333 334 335 334 332 327 326 325 318 312 299 287 285 273 267 267 256 255 262 259 255 252 251 250 249 250 252 251 247 242 240 241 240 238 240 240 240 243 243 240 243 246 246 248 249 247 250 251 247 247 247 247 248 250 254 256 259 259 256 257 258 256 255 254 254 253 252 256 257 255 254 253 252 253 254 253 253 253 254 256 257 256 254 251 250
336 334 331 327 327 329 328 327 323 321 323 324 325 320 304 296 284 270 265 258 256 258 259 257 253 252 251 250 249 247 249 253 247 241 241 241 240 243 244 243 244 243 240 241 245 249 251 250 250 251 246 243 246 246 246 249 251 254 257 259 258 256 259 259 252 252 253 253 256 260 262 261 257 255 255 253 254 254 253 253 254 255 256 256 254 251 249 249
331 328 326 324 321 321 321 319 315 313 317 320 325 324 312 305 290 272 265 262 257 255 257 258 257 258 258 255 251 249 253 257 254 246 242 243 243 244 246 246 244 243 242 243 247 252 254 254 254 250 246 245 246 244 245 252 254 253 255 259 260 257 259 261 256 254 255 253 256 262 265 261 254 253 254 253 253 254 252 252 252 252 252 251 250 249 248 249
329 324 322 320 318 318 316 312 309 310 311 311 318 318 311 308 290 270 266 261 258 256 252 251 257 264 264 256 251 256 257 255 257 252 244 245 246 244 246 247 247 245 242 243 249 253 255 257 254 248 247 247 246 247 248 253 258 256 253 256 259 257 255 256 255 255 256 250 248 260 266 257 247 251 252 251 253 252 249 249 249 249 249 247 246 247 246 247
326 324 320 317 316 315 312 307 306 306 303 305 314 311 306 301 283 270 267 254 254 274 260 254 262 266 265 255 251 257 255 252 259 253 244 246 248 247 247 245 247 250 246 247 253 256 254 254 254 250 249 248 249 253 250 250 260 260 253 252 254 253 252 251 252 253 258 256 251 258 263 259 258 256 251 250 253 251 248 248 249 248 247 246 246 245 245 244
326 324 320 317 316 314 311 307 304 302 302 307 310 308 303 289 271 267 265 249 251 278 269 264 269 267 269 264 254 255 255 252 255 248 243 246 244 245 246 242 246 249 247 250 255 255 249 247 250 251 250 248 250 254 249 247 256 258 254 253 249 247 249 250 253 255 261 267 261 254 257 263 267 261 252 252 254 252 249 249 249 248 246 245 245 244 242 241
330 325 322 320 316 314 311 308 304 304 307 309 308 307 301 282 266 265 265 259 263 270 265 265 267 265 274 270 254 256 262 255 254 249 242 243 241 242 244 245 248 245 242 248 253 254 249 245 245 246 247 248 251 255 248 244 252 256 255 255 249 249 253 253 257 260 262 270 266 250 250 263 265 258 253 252 252 253 252 250 249 247 245 244 244 243 242 241
336 330 327 325 322 317 313 309 308 309 309 308 308 308 297 278 272 267 265 266 266 266 264 263 261 266 278 271 250 253 258 254 258 252 237 238 242 246 248 248 249 247 243 247 254 257 254 252 250 245 247 250 250 255 250 246 253 254 252 254 252 253 256 255 260 264 263 267 267 252 248 263 267 259 254 252 253 256 255 252 250 246 245 246 245 244 243 242
338 334 331 329 328 325 319 315 314 313 312 310 311 308 293 280 275 268 267 267 264 265 265 265 266 272 281 273 253 253 254 251 253 245 239 244 243 245 250 250 251 251 248 249 256 257 252 254 256 250 251 254 252 252 253 251 251 249 248 252 253 254 257 259 261 265 265 265 262 251 249 262 268 264 258 256 259 262 258 251 248 246 246 247 247 246 245 244
337 336 332 329 330 327 322 321 320 318 316 315 314 308 293 284 279 276 275 269 267 268 262 265 272 275 282 277 264 263 257 251 249 245 246 249 244 243 246 249 251 252 252 252 253 253 249 251 254 251 251 253 251 251 254 252 246 247 251 253 255 255 256 259 259 258 264 264 256 250 253 259 262 264 264 261 261 263 260 252 248 249 250 249 249 248 247 246
338 338 336 333 332 328 323 322 320 317 315 315 311 305 295 288 284 285 280 266 269 273 264 268 277 280 283 274 267 272 265 256 253 251 252 253 250 249 247 249 254 254 255 254 252 255 256 254 253 252 251 249 251 252 253 252 248 250 254 253 255 257 256 260 259 257 262 263 253 250 255 259 261 264 267 266 262 260 258 255 254 255 256 254 251 249 248 247
343 344 343 341 339 338 331 324 319 316 317 314 307 301 296 290 289 293 285 273 277 281 274 275 279 281 279 269 267 273 265 260 261 257 257 257 256 254 251 253 257 259 260 262 264 266 264 256 250 253 255 250 250 254 253 253 250 248 251 252 253 259 262 263 262 262 265 263 255 253 256 262 267 266 264 263 262 258 255 255 257 258 258 258 255 251 249 247
346 346 347 346 342 341 335 327 322 319 317 313 305 300 295 291 292 289 283 282 284 282 280 283 283 280 274 267 270 273 264 262 265 261 258 257 257 257 256 254 254 257 262 264 266 266 267 264 252 252 258 249 247 254 257 260 257 250 253 255 255 259 265 266 266 268 268 264 256 253 256 263 267 267 262 262 263 260 258 257 257 259 259 259 258 255 252 249
347 345 346 345 342 340 337 331 326 320 316 311 304 298 294 294 293 285 283 286 284 284 287 286 283 278 268 262 268 273 270 267 268 266 262 260 261 262 262 261 259 259 262 264 265 263 265 266 256 254 261 255 252 256 258 263 263 257 255 256 256 259 264 267 270 271 273 270 260 256 260 264 266 268 265 264 265 261 259 257 256 259 260 260 259 256 252 250
350 347 346 346 344 341 339 334 329 322 315 309 301 296 296 298 294 287 286 287 283 288 292 284 277 275 270 264 263 267 272 272 271 269 264 263 266 264 264 266 265 262 262 264 267 266 264 263 258 259 261 258 259 262 259 260 264 262 257 258 260 262 263 266 268 268 268 268 264 259 261 264 267 268 263 259 261 260 257 257 256 258 260 260 259 256 252 249
351 351 351 350 344 339 336 334 330 323 316 310 304 300 298 295 293 289 287 287 283 286 291 284 276 276 274 270 267 269 279 276 269 268 267 265 265 263 261 265 267 267 266 266 268 268 268 267 265 265 264 260 261 265 262 259 262 263 262 263 264 263 262 263 266 267 264 265 266 259 257 261 265 266 261 255 256 258 256 256 255 257 259 259 258 256 252 249
345 345 349 348 342 335 332 330 327 322 316 312 307 304 299 293 291 290 288 288 284 284 286 281 277 277 274 272 273 276 282 276 269 270 270 265 263 262 263 265 268 270 269 268 268 268 271 271 269 268 266 264 263 264 265 261 259 262 265 266 264 263 262 260 261 265 264 266 267 260 257 261 262 262 262 259 257 259 257 255 255 256 257 258 257 254 251 249
335 335 341 342 337 331 329 326 323 320 316 312 308 305 301 296 292 291 291 289 284 284 284 280 277 276 273 275 277 278 278 275 274 274 270 265 263 262 265 267 267 269 270 270 270 270 272 273 271 267 265 267 266 264 265 265 261 261 264 264 263 264 264 262 260 262 264 266 268 266 263 264 262 261 263 264 262 260 257 255 255 256 256 257 256 254 251 250
330 328 335 337 333 328 325 321 319 318 316 313 310 306 301 297 293 291 291 290 286 283 283 281 279 277 276 278 278 277 276 274 274 273 269 268 266 264 269 270 268 271 273 270 270 272 272 271 270 268 266 267 267 265 266 268 265 263 263 263 263 264 265 265 262 260 263 266 267 268 267 266 267 266 263 263 263 260 257 257 257 257 257 256 255 254 253 252
325 324 332 334 330 325 321 319 319 319 315 312 309 305 302 299 294 292 290 289 287 283 281 282 280 278 279 280 278 277 277 275 274 272 270 269 267 267 274 275 272 275 276 271 270 274 274 271 271 271 269 267 268 269 269 269 268 267 266 265 265 265 265 266 265 262 261 262 264 267 268 267 268 268 263 263 265 262 258 256 255 257 257 256 255 253 253 254
323 324 328 330 328 323 318 318 319 317 313 312 310 306 304 300 294 292 292 290 287 282 280 281 280 279 279 279 280 280 279 277 275 273 271 270 269 271 275 278 276 277 277 274 272 276 276 273 272 272 271 270 271 271 270 269 269 269 268 266 266 266 264 264 266 266 263 262 264 266 267 265 265 264 264 265 265 263 258 254 255 258 259 257 254 253 254 254
326 325 324 327 326 320 316 316 316 314 313 313 309 304 302 298 294 293 292 290 288 284 282 281 280 280 279 279 280 280 280 279 275 273 272 271 272 274 278 283 281 277 278 277 275 278 277 273 273 273 274 274 273 272 270 267 267 269 268 267 266 266 266 264 265 267 266 264 264 265 264 264 265 265 265 265 263 261 258 254 254 258 260 257 255 254 254 253
324 323 323 327 325 318 314 316 315 313 313 311 306 303 300 297 296 294 291 289 288 286 284 282 280 279 279 280 279 278 280 279 275 274 274 273 273 276 280 285 283 278 279 280 278 279 277 274 275 277 278 278 276 275 272 267 266 269 270 269 269 269 271 270 268 268 266 264 263 262 262 264 266 266 264 263 261 258 256 254 255 256 257 257 256 254 253 253
318 319 321 326 328 323 318 318 315 312 311 308 304 302 299 296 296 295 291 289 287 285 284 282 280 280 279 279 278 277 276 275 275 276 276 274 274 276 282 285 283 280 279 278 279 280 278 276 275 275 276 278 278 277 277 274 271 272 273 272 272 272 272 273 271 268 267 267 264 262 264 266 266 264 263 262 260 258 256 255 255 254 253 255 255 253 253 254
317 317 318 320 325 324 319 318 316 311 310 308 303 301 299 295 295 295 291 287 285 284 282 280 280 280 278 278 278 277 275 273 273 274 275 276 276 277 283 284 282 280 279 278 278 278 277 275 273 272 272 274 277 279 280 279 275 275 275 274 273 272 271 271 270 267 267 269 266 265 267 269 267 264 263 261 259 259 258 255 253 252 252 254 254 253 253 254
317 317 317 317 317 318 316 316 315 312 310 307 304 303 300 295 295 294 290 287 286 285 282 280 280 279 278 278 279 278 277 275 273 274 276 278 278 279 282 283 281 279 278 278 278 277 276 275 273 272 272 273 276 278 280 279 276 276 276 275 274 273 271 269 267 267 268 268 266 265 266 268 267 266 264 261 259 260 259 256 253 253 253 253 253 253 251 251
317 315 316 315 313 313 314 314 315 312 307 304 303 302 299 295 294 293 290 288 286 284 282 279 277 278 279 280 280 279 278 277 276 276 277 279 280 281 283 283 281 280 279 278 277 277 277 276 275 275 274 275 276 278 278 278 277 276 276 276 275 273 271 268 267 268 267 265 266 265 264 263 264 265 263 262 261 259 258 258 257 257 257 254 252 251 249 249
317 314 314 313 311 311 312 311 310 308 305 303 302 300 298 296 294 292 291 289 286 283 281 279 277 279 280 280 280 279 278 279 279 278 279 281 281 283 284 284 282 281 281 281 279 279 279 278 278 278 277 277 277 277 278 277 277 276 275 275 275 273 271 270 270 269 267 266 266 266 264 261 260 261 261 261 261 259 258 259 258 257 257 255 251 249 248 250
316 314 313 310 309 309 309 307 306 305 303 302 300 299 298 295 293 293 291 288 286 284 281 280 280 281 282 281 280 279 279 281 281 279 280 281 281 283 284 284 283 282 283 283 282 281 280 279 280 281 280 279 278 278 277 276 276 277 276 276 275 273 273 272 271 270 268 267 266 265 264 262 259 257 259 260 260 259 258 257 255 254 254 252 249 248 248 250
316 314 312 309 308 308 307 305 305 304 302 301 300 300 299 295 294 295 292 287 284 283 282 282 283 283 282 280 280 281 283 283 281 281 281 280 280 282 282 282 283 284 283 283 282 281 280 280 281 281 279 279 279 278 277 277 278 277 276 275 274 273 272 272 271 270 268 268 268 265 264 263 261 257 257 258 258 257 256 255 253 252 252 249 247 247 247 249
314 312 311 309 308 307 306 305 303 302 302 302 301 299 297 296 295 295 292 288 285 283 283 283 284 284 282 281 281 284 286 283 282 282 282 280 280 280 280 280 280 281 282 281 281 280 279 280 281 280 279 279 280 280 280 280 278 276 276 276 274 271 271 271 271 271 269 269 269 266 265 266 263 259 257 255 254 253 254 253 251 249 247 245 244 245 245 246